Location: Vale
(35.4830°N, 81.3830°W)
Time: 21:52:34
(UTC-05:00)

SR - All Passes

Search period start: 05 December 2016 00:00
Search period end: 15 December 2016 00:00
Orbit: 580 x 878 km, 66.7° (Epoch: 05 December)

Date Brightness Start Highest point End Pass type
(mag) Time Alt. Az. Time Alt. Az. Time Alt. Az.
05 Dec - 00:48:12 10° N 00:53:03 34° ENE 00:58:11 10° ESE night (unlit)
05 Dec - 02:30:16 10° NW 02:35:05 32° WSW 02:40:06 10° S night (unlit)
05 Dec - 15:16:33 10° S 15:20:21 33° ESE 15:24:20 10° NE daylight
05 Dec - 16:59:19 10° W 17:02:29 20° NW 17:05:47 10° N daylight
05 Dec - 23:59:43 10° N 00:03:23 18° NE 00:07:10 10° E night (unlit)
06 Dec - 01:40:27 10° NNW 01:45:50 65° WSW 01:51:34 10° SSE night (unlit)
06 Dec - 14:29:06 10° SE 14:31:20 14° ESE 14:33:36 10° ENE daylight
06 Dec - 16:08:49 10° SW 16:12:52 42° WNW 16:17:08 10° NNE daylight
07 Dec - 00:51:06 10° NNW 00:56:29 64° ENE 01:02:11 10° SE night (unlit)
07 Dec - 02:34:50 10° WNW 02:38:08 16° WSW 02:41:33 10° SW night (unlit)
07 Dec - 15:19:14 10° SSW 15:23:29 80° ESE 15:27:57 10° NNE daylight
07 Dec - 17:05:39 10° NW 17:06:12 10° NW 17:06:46 10° NW daylight
08 Dec - 00:02:09 10° N 00:06:59 32° ENE 00:12:05 10° ESE night (unlit)
08 Dec - 01:44:08 10° NW 01:49:02 33° WSW 01:54:09 10° S night (unlit)
08 Dec - 14:30:31 10° S 14:34:17 32° ESE 14:38:13 10° NE daylight
08 Dec - 16:13:06 10° WSW 16:16:22 21° NW 16:19:48 10° N daylight
08 Dec - 23:13:43 10° N 23:17:18 18° NE 23:21:00 10° E night (unlit)
09 Dec - 00:54:21 10° NNW 00:59:48 68° WSW 01:05:33 10° SSE night (unlit)
09 Dec - 13:43:14 10° SE 13:45:16 13° ESE 13:47:21 10° ENE daylight
09 Dec - 15:22:41 10° SW 15:26:46 44° WNW 15:31:06 10° NNE daylight
10 Dec - 00:05:03 10° NNW 00:10:25 61° ENE 00:16:08 10° SE night (unlit)
10 Dec - 01:48:36 10° WNW 01:52:06 17° WSW 01:55:42 10° SW night (unlit)
10 Dec - 14:33:09 10° SSW 14:37:23 76° ESE 14:41:52 10° NNE daylight
10 Dec - 16:18:56 10° WNW 16:20:05 11° NW 16:21:15 10° NNW daylight
10 Dec - 23:16:06 10° N 23:20:55 31° ENE 23:25:58 10° ESE night (unlit)
11 Dec - 00:58:01 10° NW 01:02:59 35° WSW 01:08:12 10° S night (unlit)
11 Dec - 13:44:29 10° S 13:48:13 30° ESE 13:52:05 10° NE daylight
11 Dec - 15:26:52 10° WSW 15:30:15 22° NW 15:33:48 10° N daylight
11 Dec - 22:27:43 10° N 22:31:12 17° NE 22:34:49 10° E night (unlit)
12 Dec - 00:08:16 10° NNW 00:13:44 72° WSW 00:19:31 10° SSE night (unlit)
12 Dec - 12:57:23 10° SE 12:59:12 12° ESE 13:01:03 10° E daylight
12 Dec - 14:36:32 10° SW 14:40:40 47° WNW 14:45:03 10° NNE daylight
12 Dec - 23:18:58 10° NNW 23:24:21 58° ENE 23:30:04 10° SE night (unlit)
13 Dec - 01:02:23 10° WNW 01:06:04 18° WSW 01:09:51 10° SSW night (unlit)
13 Dec - 13:47:04 10° SSW 13:51:17 71° ESE 13:55:47 10° NNE daylight
13 Dec - 15:32:26 10° WNW 15:33:57 11° NW 15:35:30 10° NNW daylight
13 Dec - 22:30:03 10° N 22:34:49 30° NE 22:39:50 10° ESE night (unlit)
14 Dec - 00:11:53 10° NW 00:16:56 37° WSW 00:22:14 10° S night (unlit)
14 Dec - 12:58:28 10° SSE 13:02:07 28° ESE 13:05:57 10° NE daylight
14 Dec - 14:40:39 10° WSW 14:44:08 23° NW 14:47:48 10° N daylight
14 Dec - 21:41:42 10° N 21:45:06 16° NE 21:48:37 10° E night (unlit)
14 Dec - 23:22:10 10° NNW 23:27:41 75° WSW 23:33:30 10° SSE night (unlit)
